Regional Weather Roundup
Issued by NWS

Home | Current Version | Previous Version | Text Only | Print | Product List | Glossary On
Versions: 1 2 3 4 5 6 7 8 9 10 11 12 13 14 15 16 17 18 19 20 21 22 23 24 25 26 27
000
ASUS44 KLIX 042311
RWRLA
LOUISIANA WEATHER ROUNDUP
NATIONAL WEATHER SERVICE NEW ORLEANS LA
600 PM CDT WED MAY 04 2016

NOTE: "FAIR" INDICATES FEW OR NO CLOUDS BELOW 12,000 FEET WITH NO
      SIGNIFICANT WEATHER AND/OR OBSTRUCTIONS TO VISIBILITY.
      SKY/WX - SKY CONDITION AND SIGNIFICANT WEATHER.
      TMP - AIR TEMPERATURE.    DP   - DEWPOINT TEMPERATURE.
      RH  - RELATIVE HUMIDITY.  PRES - PRESSURE.
      HX  - HEAT INDEX.         WCI  - WIND CHILL INDEX.

*  THESE STATIONS ARE NOT NWS OR FAA STATIONS AND ARE NOT UNDER
   NWS QUALITY CONTROL.

LAZ040-048-061>063-065-066-069-050000-
SOUTHEAST LOUISIANA

CITY           SKY/WX    TMP DP  RH WIND       PRES   REMARKS
N.O. AUDUBON   NOT AVBL
N.O. INTL ARPT MOSUNNY   77  49  37 NW12      29.87S
N.O. LAKEFRONT SUNNY     74  54  49 NW12      29.87S
N.O. DOWNTOWN* FAIR      78  47  33 VRB5      29.87F
RESERVE*       FAIR      78  46  31 NW13      29.87F
SLIDELL        SUNNY     78  48  34 N7        29.84F
BATON ROUGE    SUNNY     77  46  33 NW8G17    29.88F
BOOTHVILLE     SUNNY     74  49  41 NW12      29.87F
BELLE CHASSE   MOSUNNY   76  47  35 VRB5      29.86F
BOGALUSA*      FAIR      78  43  28 NW8       29.86F
GALLIANO*      CLEAR     77  47  34 NW6       29.88S
NEW ROADS*     FAIR      76  49  38 NW7       29.88F
GONZALES*      FAIR      76  47  35 W10       29.87F
HAMMOND*       SUNNY     79  41  25 NW10G17   29.86S
HOUMA*         SUNNY     75  68  78 NW10      29.89S
PORT FOURCHON* CLEAR     75  48  38 NW15      29.89S

$$

LAZ041-044-053-054-050000-
SOUTHWEST LOUISIANA

CITY           SKY/WX    TMP DP  RH WIND       PRES   REMARKS
LAKE CHARLES   SUNNY     80  50  34 NW9       29.91F
LAFAYETTE      SUNNY     79  48  33 NW13      29.89F
PATTERSON      NOT AVBL
SALT POINT       N/A     76  52  43 VRB6      29.88F
NEW IBERIA     SUNNY     77  50  38 NW13G20   29.90F
CHENAULT AIRPK SUNNY     81  50  34 NW13      29.91

$$

LAZ027-028-050000-
CENTRAL LOUISIANA

CITY           SKY/WX    TMP DP  RH WIND       PRES   REMARKS
FORT POLK      SUNNY     79  51  38 W10       29.90S
ALEXANDRIA INT SUNNY     79  50  36 NW16G22   29.87F
ALEXANDRIA     SUNNY     81  50  33 NW12      29.88S

$$

LAZ001-002-050000-
NORTHWEST LOUISIANA

CITY           SKY/WX    TMP DP  RH WIND       PRES   REMARKS
SHREVEPORT     MOSUNNY   81  51  35 NW16      29.88S
BARKSDALE AFB  NOT AVBL
DTN SHREVEPORT SUNNY     79  53  40 NW9       29.88S

$$

LAZ014-016-050000-
NORTHEAST LOUISIANA

CITY           SKY/WX    TMP DP  RH WIND       PRES   REMARKS
MONROE         SUNNY     79  50  36 NW13      29.85F
TALLULAH       SUNNY     79  49  34 NW12G18   29.84S

$$





USA.gov is the U.S. government's official web portal to all federal, state and local government web resources and services.